Date,TemperatureHighF,TemperatureAvgF,TemperatureLowF,DewpointHighF,DewpointAvgF,DewpointLowF,HumidityHigh,HumidityAvg,HumidityLow,PressureMaxIn,PressureMinIn,WindSpeedMaxMPH,WindSpeedAvgMPH,GustSpeedMaxMPH,PrecipitationSumIn
2014-2-1,74.6,67.2,51.4,64.0,60.6,44.0,91,80,68,29.90,29.75,18,9,24,0.00
2014-2-2,51.0,39.4,33.2,44.0,35.6,30.0,92,86,76,30.26,29.90,20,12,27,0.02
2014-2-3,45.3,37.8,32.3,39.0,34.5,30.0,94,88,77,30.27,29.98,13,7,16,0.00
2014-2-4,61.7,46.9,40.5,48.0,42.3,39.0,96,86,53,30.11,29.87,7,3,12,0.13
2014-2-5,44.1,37.3,29.2,41.0,29.6,20.0,95,74,54,30.50,30.11,21,12,27,0.00
2014-2-6,30.6,27.7,24.3,20.0,19.3,17.0,75,70,64,30.56,30.42,20,12,25,0.00
2014-2-7,34.9,31.1,26.9,31.0,26.0,20.0,89,81,74,30.41,30.27,12,6,13,0.00
2014-2-8,60.5,44.0,34.3,45.0,38.5,31.0,95,82,56,30.27,30.04,12,5,18,0.00
2014-2-9,74.9,54.3,42.5,56.0,48.4,41.0,97,83,51,30.13,29.92,15,7,22,0.00
2014-2-10,52.5,39.8,32.5,47.0,36.9,31.0,94,89,81,30.23,30.03,21,12,24,0.00
2014-2-11,34.7,32.8,31.6,32.0,30.6,29.0,94,92,84,30.30,30.20,19,11,23,0.02
2014-2-12,54.3,41.4,31.3,37.0,31.9,28.0,90,71,47,30.27,30.08,10,4,15,0.01
2014-2-13,67.7,48.3,27.2,41.0,35.5,24.0,93,65,36,30.11,29.93,18,5,21,0.00
2014-2-14,84.5,59.7,42.5,55.0,41.7,29.0,95,59,21,30.08,29.84,19,8,29,0.00
2014-2-15,74.1,56.3,36.7,52.0,36.2,27.0,83,50,27,30.17,30.01,15,5,20,0.00
2014-2-16,75.8,63.4,55.7,63.0,58.6,52.0,95,85,64,30.06,29.93,17,6,20,0.00
2014-2-17,81.3,67.2,53.5,66.0,51.9,34.0,95,64,24,30.11,29.91,20,7,28,0.00
2014-2-18,80.6,65.9,51.4,64.0,52.7,36.0,89,63,44,30.10,29.88,16,5,20,0.00
2014-2-19,80.0,67.9,60.7,65.0,61.6,59.0,95,81,55,29.92,29.72,19,9,24,0.00
2014-2-20,81.7,67.5,48.5,67.0,52.0,34.0,93,63,21,30.08,29.69,20,8,24,0.00
2014-2-21,71.5,52.9,34.1,38.0,32.2,30.0,86,50,24,30.20,30.02,14,4,19,0.00
2014-2-22,74.9,57.5,40.4,59.0,46.6,32.0,85,68,48,30.06,29.87,19,5,24,0.00
2014-2-23,86.3,68.8,57.2,65.0,58.1,48.0,93,71,39,30.04,29.88,15,5,16,0.00
2014-2-24,76.6,61.2,50.7,63.0,53.1,44.0,92,75,58,30.10,29.98,11,5,16,0.00
2014-2-25,69.1,58.7,49.1,66.0,57.3,48.0,97,95,85,30.04,29.94,15,7,20,0.01
2014-2-26,49.1,39.1,31.0,48.0,34.2,27.0,96,82,64,30.26,30.04,24,11,33,0.14
2014-2-27,58.3,42.5,27.1,36.0,30.4,25.0,91,65,37,30.23,29.93,11,4,18,0.01
2014-2-28,76.4,56.2,39.9,56.0,47.5,37.0,93,75,48,29.93,29.76,15,7,24,0.00